Location: Flotzheim
(48.8375°N, 10.8136°E)
Time: 04:04:04
(UTC+00:00)

Cosmos 2098 Rocket - Pass Details

Date: 23 January 2021
Orbit: 366 x 1182 km, 82.9° (Epoch: 26 February)

Event Time Altitude Azimuth Distance (km) Brightness Sun altitude
Rises 18:19:24 0° 184° (S) 3,912 7.2 -22.6°
Reaches altitude 10° 18:21:56 10° 183° (S) 3,018 6.6 -23.0°
Maximum altitude 18:29:13 84° 97° (E) 1,196 4.3 -24.2°
Drops below altitude 10° 18:36:37 10° 10° (N) 3,064 6.5 -25.4°
Sets 18:39:13 0° 10° (N) 3,975 7.1 -25.9°
